LNI390 WIII-WIBB

Flight info

Callsign LNI390
Flight time 1h 23m
Altitude 34000
Route GOMEL1C GOMEL T10 OVSET OVSET1G
Aircraft B738/M-SDE2E3FGHIRWXY/LB1

Departure

Time 2026-04-26 04:36
Airport Soekarno-Hatta International Airport (WIII)

Arrival

Time 2026-04-26 05:59
Airport Sultan Syarif Kasim II International Airport / Roesmin Nurjadin AFB (WIBB)
Time Latitude Longitude Altitude Speed Heading
2026-04-26 04:09 -6.12780 106.65951 37 ft 0 kts 219°
2026-04-26 04:21 -6.12776 106.65954 37 ft 2 kts 217°
2026-04-26 04:21 -6.12763 106.65964 36 ft 2 kts 219°
2026-04-26 04:21 -6.12750 106.65975 35 ft 2 kts 220°
2026-04-26 04:21 -6.12737 106.65986 36 ft 2 kts 220°
2026-04-26 04:22 -6.12723 106.65994 37 ft 2 kts 188°
2026-04-26 04:22 -6.12707 106.65992 34 ft 2 kts 144°
2026-04-26 04:22 -6.12696 106.65980 37 ft 2 kts 129°
2026-04-26 04:22 -6.12685 106.65967 37 ft 2 kts 128°
2026-04-26 04:23 -6.12681 106.65962 37 ft 0 kts 128°
2026-04-26 04:25 -6.12682 106.65963 37 ft 1 kts 128°
2026-04-26 04:25 -6.12693 106.65978 37 ft 5 kts 128°
2026-04-26 04:26 -6.12725 106.66019 37 ft 9 kts 128°
2026-04-26 04:26 -6.12771 106.66073 37 ft 11 kts 139°
2026-04-26 04:26 -6.12845 106.66109 37 ft 13 kts 158°
2026-04-26 04:26 -6.12931 106.66144 37 ft 14 kts 158°
2026-04-26 04:27 -6.13023 106.66181 37 ft 15 kts 158°
2026-04-26 04:27 -6.13120 106.66221 36 ft 14 kts 158°
2026-04-26 04:27 -6.13198 106.66252 37 ft 12 kts 158°
2026-04-26 04:27 -6.13278 106.66274 38 ft 12 kts 190°
2026-04-26 04:28 -6.13325 106.66207 38 ft 13 kts 250°
2026-04-26 04:28 -6.13359 106.66120 35 ft 14 kts 248°
2026-04-26 04:28 -6.13396 106.66028 38 ft 15 kts 248°
2026-04-26 04:28 -6.13437 106.65927 37 ft 16 kts 249°
2026-04-26 04:29 -6.13477 106.65824 37 ft 16 kts 247°
2026-04-26 04:29 -6.13518 106.65723 36 ft 15 kts 248°
2026-04-26 04:29 -6.13556 106.65625 37 ft 15 kts 249°
2026-04-26 04:29 -6.13595 106.65524 37 ft 16 kts 249°
2026-04-26 04:30 -6.13637 106.65419 38 ft 16 kts 243°
2026-04-26 04:30 -6.13681 106.65315 38 ft 16 kts 249°
2026-04-26 04:30 -6.13721 106.65214 37 ft 15 kts 248°
2026-04-26 04:30 -6.13759 106.65118 37 ft 15 kts 248°
2026-04-26 04:31 -6.13796 106.65026 38 ft 15 kts 248°
2026-04-26 04:31 -6.13835 106.64928 38 ft 16 kts 248°
2026-04-26 04:31 -6.13877 106.64824 37 ft 17 kts 248°
2026-04-26 04:31 -6.13921 106.64714 38 ft 17 kts 248°
2026-04-26 04:32 -6.13963 106.64607 36 ft 16 kts 249°
2026-04-26 04:32 -6.14004 106.64504 36 ft 16 kts 246°
2026-04-26 04:32 -6.14046 106.64398 36 ft 16 kts 249°
2026-04-26 04:32 -6.14081 106.64324 37 ft 10 kts 232°
2026-04-26 04:33 -6.14110 106.64304 38 ft 0 kts 202°
2026-04-26 04:33 -6.14110 106.64303 38 ft 0 kts 202°
2026-04-26 04:34 -6.14124 106.64299 39 ft 4 kts 194°
2026-04-26 04:34 -6.14166 106.64311 40 ft 8 kts 148°
2026-04-26 04:34 -6.14204 106.64357 41 ft 9 kts 116°
2026-04-26 04:34 -6.14239 106.64403 40 ft 5 kts 100°
2026-04-26 04:35 -6.14231 106.64422 38 ft 4 kts 65°
2026-04-26 04:35 -6.14216 106.64458 39 ft 13 kts 68°
2026-04-26 04:35 -6.14071 106.64820 38 ft 100 kts 68°
2026-04-26 04:35 -6.13707 106.65715 76 ft 172 kts 67°
2026-04-26 04:36 -6.13237 106.66956 656 ft 204 kts 68°
2026-04-26 04:36 -6.12701 106.68379 1084 ft 232 kts 70°
2026-04-26 04:36 -6.12078 106.69966 1556 ft 249 kts 68°
2026-04-26 04:36 -6.11416 106.71581 1780 ft 254 kts 67°
2026-04-26 04:37 -6.11075 106.73279 2584 ft 253 kts 97°
2026-04-26 04:37 -6.11809 106.74814 3760 ft 241 kts 135°
2026-04-26 04:37 -6.13112 106.75799 4932 ft 234 kts 148°
2026-04-26 04:37 -6.14673 106.76350 5680 ft 242 kts 162°
2026-04-26 04:38 -6.16348 106.76625 6418 ft 251 kts 184°
2026-04-26 04:38 -6.17981 106.75988 7148 ft 257 kts 213°
2026-04-26 04:38 -6.19305 106.74764 7843 ft 264 kts 236°
2026-04-26 04:38 -6.19917 106.73037 8581 ft 265 kts 262°
2026-04-26 04:39 -6.20140 106.71183 9345 ft 269 kts 264°
2026-04-26 04:39 -6.20327 106.69304 10066 ft 272 kts 265°
2026-04-26 04:39 -6.20611 106.67370 10462 ft 290 kts 259°
2026-04-26 04:39 -6.21041 106.65341 10983 ft 301 kts 257°
2026-04-26 04:40 -6.21497 106.63277 11646 ft 304 kts 257°
2026-04-26 04:40 -6.21947 106.61190 12400 ft 306 kts 258°
2026-04-26 04:40 -6.22384 106.59108 13080 ft 311 kts 258°
2026-04-26 04:40 -6.22828 106.56964 13763 ft 314 kts 258°
2026-04-26 04:41 -6.23240 106.54798 14390 ft 317 kts 265°
2026-04-26 04:41 -6.22997 106.52603 14989 ft 319 kts 290°
2026-04-26 04:41 -6.21891 106.50624 15193 ft 335 kts 311°
2026-04-26 04:41 -6.20297 106.48823 15368 ft 354 kts 314°
2026-04-26 04:42 -6.19163 106.47606 15452 ft 367 kts 315°
2026-04-26 04:42 -6.17372 106.45693 15645 ft 382 kts 315°
2026-04-26 04:42 -6.15543 106.43716 16076 ft 389 kts 314°
2026-04-26 04:42 -6.13714 106.41708 16670 ft 390 kts 314°
2026-04-26 04:43 -6.11884 106.39684 17235 ft 392 kts 314°
2026-04-26 04:43 -6.10021 106.37654 17755 ft 395 kts 318°
2026-04-26 04:43 -6.07777 106.36095 18236 ft 394 kts 338°
2026-04-26 04:43 -6.04313 106.35015 18870 ft 394 kts 347°
2026-04-26 04:44 -6.02510 106.34554 19162 ft 396 kts 348°
2026-04-26 04:44 -5.99825 106.33886 19574 ft 400 kts 348°
2026-04-26 04:44 -5.97114 106.33207 20004 ft 403 kts 347°
2026-04-26 04:44 -5.93499 106.32278 20573 ft 406 kts 347°
2026-04-26 04:45 -5.91682 106.31803 20845 ft 408 kts 347°
2026-04-26 04:45 -5.88924 106.31076 21262 ft 411 kts 347°
2026-04-26 04:45 -5.86149 106.30341 21655 ft 414 kts 347°
2026-04-26 04:45 -5.83358 106.29600 22040 ft 416 kts 347°
2026-04-26 04:46 -5.80539 106.28853 22426 ft 419 kts 347°
2026-04-26 04:46 -5.77708 106.28103 22803 ft 422 kts 347°
2026-04-26 04:46 -5.74868 106.27319 23171 ft 425 kts 342°
2026-04-26 04:46 -5.72237 106.25946 23480 ft 432 kts 324°
2026-04-26 04:47 -5.69874 106.24072 23796 ft 433 kts 322°
2026-04-26 04:47 -5.67559 106.22177 23864 ft 435 kts 322°
2026-04-26 04:47 -5.65221 106.20257 23871 ft 434 kts 322°
2026-04-26 04:47 -5.62873 106.18346 23880 ft 434 kts 322°
2026-04-26 04:48 -5.58146 106.14547 23892 ft 436 kts 323°
2026-04-26 04:48 -5.55769 106.12650 23890 ft 437 kts 323°
2026-04-26 04:48 -5.53389 106.10754 23886 ft 437 kts 323°
2026-04-26 04:49 -5.51006 106.08855 23884 ft 437 kts 323°
2026-04-26 04:49 -5.48625 106.06958 23885 ft 436 kts 323°
2026-04-26 04:49 -5.46250 106.05063 23882 ft 436 kts 323°
2026-04-26 04:49 -5.43880 106.03175 23885 ft 435 kts 323°
2026-04-26 04:50 -5.41510 106.01287 23882 ft 434 kts 323°
2026-04-26 04:50 -5.39158 105.99421 23928 ft 438 kts 323°
2026-04-26 04:50 -5.36760 105.97521 24221 ft 439 kts 323°
2026-04-26 04:50 -5.34362 105.95620 24619 ft 439 kts 323°
2026-04-26 04:51 -5.31968 105.93723 24943 ft 440 kts 323°
2026-04-26 04:51 -5.29562 105.91815 25225 ft 442 kts 323°
2026-04-26 04:51 -5.27139 105.89894 25486 ft 445 kts 323°
2026-04-26 04:51 -5.24702 105.87961 25760 ft 447 kts 323°
2026-04-26 04:52 -5.22260 105.86024 26054 ft 449 kts 323°
2026-04-26 04:52 -5.19807 105.84080 26342 ft 450 kts 323°
2026-04-26 04:52 -5.17333 105.82143 26625 ft 452 kts 324°
2026-04-26 04:52 -5.14789 105.80280 26907 ft 454 kts 326°
2026-04-26 04:53 -5.12198 105.78454 27168 ft 456 kts 326°
2026-04-26 04:53 -5.09587 105.76636 27408 ft 458 kts 327°
2026-04-26 04:53 -5.06965 105.74808 27663 ft 460 kts 326°
2026-04-26 04:53 -5.04337 105.72965 27918 ft 462 kts 326°
2026-04-26 04:54 -5.01706 105.71109 28146 ft 464 kts 326°
2026-04-26 04:54 -4.99060 105.69234 28412 ft 465 kts 326°
2026-04-26 04:54 -4.96415 105.67355 28656 ft 467 kts 326°
2026-04-26 04:54 -4.93792 105.65489 28881 ft 469 kts 326°
2026-04-26 04:55 -4.91119 105.63586 29106 ft 471 kts 326°
2026-04-26 04:55 -4.88443 105.61681 29334 ft 472 kts 326°
2026-04-26 04:55 -4.85751 105.59766 29554 ft 474 kts 326°
2026-04-26 04:55 -4.83057 105.57850 29774 ft 476 kts 326°
2026-04-26 04:56 -4.80344 105.55921 29993 ft 477 kts 326°
2026-04-26 04:56 -4.77633 105.53995 30211 ft 478 kts 326°
2026-04-26 04:56 -4.74945 105.52083 30453 ft 478 kts 326°
2026-04-26 04:56 -4.72201 105.50133 30727 ft 477 kts 326°
2026-04-26 04:57 -4.69500 105.48213 31048 ft 475 kts 326°
2026-04-26 04:57 -4.66836 105.46320 31370 ft 473 kts 326°
2026-04-26 04:57 -4.64152 105.44413 31688 ft 472 kts 326°
2026-04-26 04:57 -4.61475 105.42511 31979 ft 470 kts 326°
2026-04-26 04:58 -4.58808 105.40616 32283 ft 469 kts 326°
2026-04-26 04:58 -4.56145 105.38725 32599 ft 468 kts 326°
2026-04-26 04:58 -4.53491 105.36841 32921 ft 466 kts 326°
2026-04-26 04:58 -4.50843 105.34959 33243 ft 465 kts 326°
2026-04-26 04:59 -4.48214 105.33093 33543 ft 463 kts 326°
2026-04-26 04:59 -4.45621 105.31252 33858 ft 462 kts 326°
2026-04-26 04:59 -4.40345 105.27506 33877 ft 464 kts 326°
2026-04-26 05:00 -4.35088 105.23775 33874 ft 461 kts 326°
2026-04-26 05:00 -4.29856 105.20061 33876 ft 460 kts 326°
2026-04-26 05:01 -4.24626 105.16350 33879 ft 459 kts 326°
2026-04-26 05:01 -4.19414 105.12651 33875 ft 458 kts 326°
2026-04-26 05:02 -4.14241 105.08981 33878 ft 459 kts 325°
2026-04-26 05:02 -4.09069 105.05216 33875 ft 460 kts 320°
2026-04-26 05:03 -4.04337 105.00881 33874 ft 462 kts 317°
2026-04-26 05:03 -3.99685 104.96423 33888 ft 463 kts 317°
2026-04-26 05:04 -3.95036 104.92007 33880 ft 464 kts 317°
2026-04-26 05:04 -3.90324 104.87579 33880 ft 465 kts 318°
2026-04-26 05:05 -3.85589 104.83150 33870 ft 466 kts 318°
2026-04-26 05:05 -3.80845 104.78714 33870 ft 466 kts 318°
2026-04-26 05:06 -3.76103 104.74281 33866 ft 466 kts 318°
2026-04-26 05:06 -3.71394 104.69877 33878 ft 465 kts 318°
2026-04-26 05:07 -3.66665 104.65455 33872 ft 465 kts 318°
2026-04-26 05:07 -3.61934 104.61032 33871 ft 465 kts 318°
2026-04-26 05:08 -3.57213 104.56618 33880 ft 464 kts 318°
2026-04-26 05:08 -3.52492 104.52206 33875 ft 464 kts 318°
2026-04-26 05:09 -3.47774 104.47796 33881 ft 464 kts 318°
2026-04-26 05:09 -3.43085 104.43415 33881 ft 464 kts 318°
2026-04-26 05:10 -3.38372 104.39012 33877 ft 464 kts 318°
2026-04-26 05:10 -3.33651 104.34602 33881 ft 464 kts 318°
2026-04-26 05:11 -3.28931 104.30194 33875 ft 464 kts 318°
2026-04-26 05:11 -3.24206 104.25782 33882 ft 464 kts 318°
2026-04-26 05:12 -3.19475 104.21364 33882 ft 465 kts 318°
2026-04-26 05:12 -3.14775 104.16977 33883 ft 465 kts 318°
2026-04-26 05:13 -3.10036 104.12553 33883 ft 466 kts 318°
2026-04-26 05:13 -3.05290 104.08124 33882 ft 467 kts 318°
2026-04-26 05:14 -3.00533 104.03684 33880 ft 467 kts 318°
2026-04-26 05:14 -2.95766 103.99235 33881 ft 468 kts 318°
2026-04-26 05:15 -2.91034 103.94820 33883 ft 468 kts 318°
2026-04-26 05:15 -2.86260 103.90366 33883 ft 468 kts 318°
2026-04-26 05:16 -2.81487 103.85914 33882 ft 468 kts 318°
2026-04-26 05:16 -2.76717 103.81465 33881 ft 468 kts 318°
2026-04-26 05:17 -2.71973 103.77041 33883 ft 469 kts 318°
2026-04-26 05:17 -2.67205 103.72595 33886 ft 469 kts 318°
2026-04-26 05:18 -2.62434 103.68146 33887 ft 469 kts 317°
2026-04-26 05:18 -2.57653 103.63689 33883 ft 469 kts 317°
2026-04-26 05:19 -2.52882 103.59241 33882 ft 469 kts 317°
2026-04-26 05:19 -2.48134 103.54815 33883 ft 468 kts 317°
2026-04-26 05:20 -2.43366 103.50371 33884 ft 468 kts 317°
2026-04-26 05:20 -2.38593 103.45921 33886 ft 467 kts 317°
2026-04-26 05:21 -2.33861 103.41511 33886 ft 467 kts 317°
2026-04-26 05:21 -2.29111 103.37082 33886 ft 467 kts 317°
2026-04-26 05:22 -2.24364 103.32650 33887 ft 467 kts 317°
2026-04-26 05:22 -2.19617 103.28216 33887 ft 467 kts 317°
2026-04-26 05:23 -2.14869 103.23782 33886 ft 467 kts 317°
2026-04-26 05:23 -2.10119 103.19346 33889 ft 467 kts 317°
2026-04-26 05:24 -2.05372 103.14914 33888 ft 467 kts 317°
2026-04-26 05:24 -2.00649 103.10505 33887 ft 468 kts 317°
2026-04-26 05:25 -1.95883 103.06056 33890 ft 468 kts 317°
2026-04-26 05:25 -1.91125 103.01615 33891 ft 468 kts 317°
2026-04-26 05:26 -1.86360 102.97167 33889 ft 468 kts 317°
2026-04-26 05:26 -1.81623 102.92747 33884 ft 468 kts 317°
2026-04-26 05:27 -1.76863 102.88304 33889 ft 467 kts 317°
2026-04-26 05:27 -1.72105 102.83864 33893 ft 467 kts 317°
2026-04-26 05:28 -1.67353 102.79429 33885 ft 467 kts 317°
2026-04-26 05:28 -1.62627 102.75019 33890 ft 467 kts 317°
2026-04-26 05:29 -1.57869 102.70604 33885 ft 466 kts 321°
2026-04-26 05:29 -1.55161 102.68864 33881 ft 463 kts 338°
2026-04-26 05:29 -1.52127 102.67825 33904 ft 461 kts 344°
2026-04-26 05:30 -1.45942 102.66073 33888 ft 461 kts 345°
2026-04-26 05:30 -1.40804 102.64636 33887 ft 461 kts 345°
2026-04-26 05:31 -1.33624 102.62559 33889 ft 462 kts 344°
2026-04-26 05:31 -1.28448 102.61035 33887 ft 463 kts 344°
2026-04-26 05:32 -1.22304 102.59219 33889 ft 463 kts 344°
2026-04-26 05:32 -1.16115 102.57391 33889 ft 464 kts 344°
2026-04-26 05:33 -1.09907 102.55560 33890 ft 464 kts 344°
2026-04-26 05:33 -1.03697 102.53729 33882 ft 465 kts 344°
2026-04-26 05:34 -0.97523 102.51908 33887 ft 465 kts 344°
2026-04-26 05:34 -0.91311 102.50077 33885 ft 465 kts 344°
2026-04-26 05:35 -0.85099 102.48245 33884 ft 465 kts 345°
2026-04-26 05:35 -0.78890 102.46414 33885 ft 465 kts 345°
2026-04-26 05:36 -0.72700 102.44589 33314 ft 471 kts 345°
2026-04-26 05:36 -0.69563 102.43664 32740 ft 468 kts 345°
2026-04-26 05:36 -0.66451 102.42745 32282 ft 463 kts 345°
2026-04-26 05:37 -0.63359 102.41833 31799 ft 460 kts 345°
2026-04-26 05:37 -0.60299 102.40931 31320 ft 456 kts 345°
2026-04-26 05:37 -0.57279 102.39989 30833 ft 454 kts 339°
2026-04-26 05:37 -0.54545 102.38426 30316 ft 455 kts 322°
2026-04-26 05:38 -0.52246 102.36306 29804 ft 454 kts 317°
2026-04-26 05:38 -0.50012 102.34086 29228 ft 452 kts 316°
2026-04-26 05:38 -0.47805 102.31869 28731 ft 448 kts 316°
2026-04-26 05:38 -0.45610 102.29681 28231 ft 444 kts 316°
2026-04-26 05:39 -0.43421 102.27524 27747 ft 440 kts 317°
2026-04-26 05:39 -0.41237 102.25393 27275 ft 436 kts 317°
2026-04-26 05:39 -0.39067 102.23286 26805 ft 433 kts 317°
2026-04-26 05:39 -0.36911 102.21196 26339 ft 430 kts 317°
2026-04-26 05:40 -0.34770 102.19120 25874 ft 427 kts 317°
2026-04-26 05:40 -0.32644 102.17058 25389 ft 425 kts 317°
2026-04-26 05:40 -0.30528 102.15005 24924 ft 423 kts 317°
2026-04-26 05:40 -0.28419 102.12959 24452 ft 421 kts 317°
2026-04-26 05:41 -0.26322 102.10928 23989 ft 419 kts 317°
2026-04-26 05:41 -0.24232 102.08907 23524 ft 418 kts 317°
2026-04-26 05:41 -0.22149 102.06892 22988 ft 416 kts 317°
2026-04-26 05:41 -0.20104 102.04914 22505 ft 412 kts 317°
2026-04-26 05:42 -0.18052 102.02928 22045 ft 409 kts 317°
2026-04-26 05:42 -0.16013 102.00955 21586 ft 406 kts 317°
2026-04-26 05:42 -0.13992 101.98999 21135 ft 402 kts 317°
2026-04-26 05:42 -0.11985 101.97057 20689 ft 399 kts 317°
2026-04-26 05:43 -0.09995 101.95132 20251 ft 397 kts 317°
2026-04-26 05:43 -0.08018 101.93218 19798 ft 395 kts 317°
2026-04-26 05:43 -0.06049 101.91310 19348 ft 393 kts 317°
2026-04-26 05:43 -0.04094 101.89416 18900 ft 391 kts 317°
2026-04-26 05:44 -0.02145 101.87526 18459 ft 389 kts 317°
2026-04-26 05:44 -0.00205 101.85646 17991 ft 388 kts 317°
2026-04-26 05:44 0.01727 101.83773 17518 ft 385 kts 317°
2026-04-26 05:44 0.03642 101.81916 17074 ft 382 kts 317°
2026-04-26 05:45 0.05518 101.80099 16646 ft 379 kts 317°
2026-04-26 05:45 0.07400 101.78275 16218 ft 376 kts 317°
2026-04-26 05:45 0.09295 101.76485 15774 ft 373 kts 322°
2026-04-26 05:45 0.11403 101.74987 15230 ft 372 kts 329°
2026-04-26 05:46 0.13613 101.73617 14693 ft 373 kts 330°
2026-04-26 05:46 0.15829 101.72267 14118 ft 370 kts 330°
2026-04-26 05:46 0.17996 101.70927 13556 ft 362 kts 329°
2026-04-26 05:46 0.20107 101.69599 12991 ft 354 kts 329°
2026-04-26 05:47 0.22157 101.68296 12455 ft 346 kts 329°
2026-04-26 05:47 0.24163 101.67012 11942 ft 339 kts 329°
2026-04-26 05:47 0.26127 101.65754 11445 ft 332 kts 329°
2026-04-26 05:47 0.28054 101.64518 10968 ft 326 kts 329°
2026-04-26 05:48 0.29916 101.63328 10590 ft 317 kts 329°
2026-04-26 05:48 0.31748 101.62158 10307 ft 307 kts 329°
2026-04-26 05:48 0.33521 101.61026 9977 ft 299 kts 330°
2026-04-26 05:48 0.35258 101.59918 9658 ft 292 kts 330°
2026-04-26 05:49 0.36954 101.58836 9294 ft 286 kts 330°
2026-04-26 05:49 0.40551 101.57672 8709 ft 269 kts
2026-04-26 05:49 0.42422 101.57635 8446 ft 270 kts
2026-04-26 05:50 0.44313 101.57618 8179 ft 273 kts
2026-04-26 05:50 0.46240 101.57597 7915 ft 280 kts
2026-04-26 05:50 0.48201 101.57567 7631 ft 281 kts
2026-04-26 05:50 0.50150 101.57530 7344 ft 280 kts
2026-04-26 05:51 0.52090 101.57490 7065 ft 278 kts
2026-04-26 05:51 0.54022 101.57449 6790 ft 277 kts
2026-04-26 05:51 0.55949 101.57392 6510 ft 276 kts 358°
2026-04-26 05:51 0.57832 101.57200 6233 ft 275 kts 355°
2026-04-26 05:52 0.59724 101.56965 5946 ft 273 kts 355°
2026-04-26 05:52 0.61606 101.56736 5660 ft 271 kts 355°
2026-04-26 05:52 0.63478 101.56515 5389 ft 270 kts 355°
2026-04-26 05:52 0.65308 101.56123 5104 ft 271 kts 336°
2026-04-26 05:53 0.66787 101.54960 4835 ft 275 kts 308°
2026-04-26 05:53 0.67575 101.53219 4547 ft 277 kts 282°
2026-04-26 05:53 0.67846 101.51312 4250 ft 277 kts 277°
2026-04-26 05:53 0.68051 101.49408 3954 ft 273 kts 273°
2026-04-26 05:54 0.67741 101.47582 3663 ft 264 kts 244°
2026-04-26 05:54 0.66676 101.46155 3428 ft 252 kts 218°
2026-04-26 05:54 0.65213 101.45301 3285 ft 238 kts 197°
2026-04-26 05:54 0.63653 101.44981 3106 ft 222 kts 185°
2026-04-26 05:55 0.62167 101.44855 2876 ft 210 kts 181°
2026-04-26 05:55 0.60746 101.44824 2653 ft 200 kts 180°
2026-04-26 05:55 0.59386 101.44801 2428 ft 192 kts 179°
2026-04-26 05:55 0.58074 101.44773 2211 ft 184 kts 180°
2026-04-26 05:56 0.56826 101.44743 1989 ft 175 kts 180°
2026-04-26 05:56 0.55629 101.44713 1730 ft 169 kts 180°
2026-04-26 05:56 0.54523 101.44683 1708 ft 149 kts 179°
2026-04-26 05:56 0.53522 101.44661 1675 ft 142 kts 179°
2026-04-26 05:57 0.52522 101.44651 1464 ft 144 kts 179°
2026-04-26 05:57 0.51526 101.44643 1250 ft 141 kts 179°
2026-04-26 05:57 0.50544 101.44618 1026 ft 141 kts 181°
2026-04-26 05:57 0.49549 101.44562 764 ft 144 kts 181°
2026-04-26 05:58 0.48542 101.44522 500 ft 145 kts 180°
2026-04-26 05:58 0.47539 101.44492 260 ft 145 kts 180°
2026-04-26 05:58 0.46552 101.44455 127 ft 132 kts 176°
2026-04-26 05:58 0.45731 101.44442 124 ft 102 kts 182°
2026-04-26 05:59 0.45202 101.44426 127 ft 57 kts 181°
2026-04-26 05:59 0.44897 101.44419 128 ft 36 kts 181°
2026-04-26 05:59 0.44772 101.44443 127 ft 0 kts 196°
2026-04-26 05:59 0.44769 101.44440 126 ft 2 kts 215°
2026-04-26 06:00 0.44763 101.44412 128 ft 6 kts 293°
2026-04-26 06:00 0.44777 101.44404 126 ft 3 kts 356°
2026-04-26 06:00 0.44826 101.44411 125 ft 12 kts
2026-04-26 06:00 0.44935 101.44418 126 ft 18 kts
2026-04-26 06:01 0.45079 101.44422 128 ft 23 kts
2026-04-26 06:01 0.45252 101.44427 127 ft 27 kts
2026-04-26 06:01 0.45449 101.44434 126 ft 30 kts
2026-04-26 06:01 0.45664 101.44440 125 ft 31 kts
2026-04-26 06:02 0.45883 101.44447 125 ft 32 kts
2026-04-26 06:02 0.46108 101.44455 126 ft 29 kts
2026-04-26 06:02 0.46268 101.44456 127 ft 21 kts
2026-04-26 06:02 0.46372 101.44473 125 ft 11 kts 48°
2026-04-26 06:03 0.46381 101.44554 126 ft 14 kts 91°
2026-04-26 06:03 0.46411 101.44590 127 ft 7 kts
2026-04-26 06:03 0.46475 101.44592 125 ft 11 kts
2026-04-26 06:03 0.46523 101.44611 124 ft 5 kts 73°
2026-04-26 06:04 0.46519 101.44652 127 ft 7 kts 93°
2026-04-26 06:04 0.46518 101.44678 127 ft 1 kts 91°
2026-04-26 06:04 0.46518 101.44679 127 ft 0 kts 91°